Location: Festilli
(46.4000°N, 11.6667°E)
Time: 21:07:21
(UTC+00:00)

Cosmos 2366 rocket - Pass Details

Date: 03 March 2021
Orbit: 954 x 998 km, 82.9° (Epoch: 20 April)

Event Time Altitude Azimuth Distance (km) Brightness Sun altitude
Rises 18:20:52 0° 163° (SSE) 3,680 6.8 -14.3°
Reaches altitude 10° 18:23:30 10° 156° (SSE) 2,741 6.1 -14.8°
Maximum altitude 18:29:19 41° 88° (E) 1,412 4.4 -15.8°
Drops below altitude 10° 18:35:12 10° 21° (NNE) 2,775 6.2 -16.8°
Sets 18:37:52 0° 15° (NNE) 3,731 7.0 -17.2°
